Tillbaka till svenska Fidonet
English   Information   Debug  
FILM   0/18
FNEWS_PUBLISH   4751
FN_SYSOP   42036
FN_SYSOP_OLD1   71952
FTP_FIDO   0/2
FTSC_PUBLIC   0/13899
FUNNY   0/4886
GENEALOGY.EUR   0/71
GET_INFO   105
GOLDED   0/408
HAM   0/16392
HOLYSMOKE   0/6791
HOT_SITES   0/1
HTMLEDIT   0/71
HUB203   466
HUB_100   264
HUB_400   39
HUMOR   0/29
IC   0/2851
INTERNET   0/424
INTERUSER   0/3
IP_CONNECT   719
JAMNNTPD   0/233
JAMTLAND   0/47
KATTY_KORNER   0/41
LAN   0/16
LINUX-USER   0/19
LINUXHELP   0/1155
LINUX   0/22267
LINUX_BBS   0/957
mail   18.68
mail_fore_ok   249
MENSA   0/341
MODERATOR   0/102
MONTE   0/992
MOSCOW_OKLAHOMA   0/1245
MUFFIN   0/783
MUSIC   0/321
N203_STAT   938
N203_SYSCHAT   313
NET203   321
NET204   69
NET_DEV   0/10
NORD.ADMIN   0/101
NORD.CHAT   0/2572
NORD.FIDONET   189
NORD.HARDWARE   0/28
NORD.KULTUR   0/114
NORD.PROG   0/32
NORD.SOFTWARE   0/88
NORD.TEKNIK   0/58
NORD   0/453
OCCULT_CHAT   0/93
OS2BBS   0/787
OS2DOSBBS   0/580
OS2HW   0/42
OS2INET   0/37
OS2LAN   0/134
OS2PROG   0/36
OS2REXX   0/113
OS2USER-L   207
OS2   0/4806
OSDEBATE   0/18996
PASCAL   0/490
PERL   0/457
PHP   0/45
POINTS   0/405
POLITICS   0/29554
POL_INC   0/14731
PSION   103
R20_ADMIN   1132
R20_AMATORRADIO   0/2
R20_BEST_OF_FIDONET   14
R20_CHAT   0/893
R20_DEPP   0/3
R20_DEV   399
R20_ECHO2   1669
R20_ECHOPRES   0/35
R20_ESTAT   0/719
R20_FIDONETPROG...
...RAM.MYPOINT
  0/2
R20_FIDONETPROGRAM   0/22
R20_FIDONET   0/248
R20_FILEFIND   0/24
R20_FILEFOUND   0/22
R20_HIFI   0/3
R20_INFO2   3559
R20_INTERNET   0/12940
R20_INTRESSE   0/60
R20_INTR_KOM   0/99
R20_KANDIDAT.CHAT   42
R20_KANDIDAT   28
R20_KOM_DEV   112
R20_KONTROLL   5364/13360
R20_KORSET   0/18
R20_LOKALTRAFIK   0/24
R20_MODERATOR   0/1852
R20_NC   76
R20_NET200   245
R20_NETWORK.OTH...
...ERNETS
  0/13
R20_OPERATIVSYS...
...TEM.LINUX
  0/44
R20_PROGRAMVAROR   0/1
R20_REC2NEC   534
R20_SFOSM   0/341
R20_SF   0/108
R20_SPRAK.ENGLISH   0/1
R20_SQUISH   107
R20_TEST   2
R20_WORST_OF_FIDONET   20
RAR   0/9
RA_MULTI   106
RA_UTIL   0/162
REGCON.EUR   0/2066
REGCON   0/13
SCIENCE   0/1206
SF   0/239
SHAREWARE_SUPPORT   0/5146
SHAREWRE   0/14
SIMPSONS   0/169
STATS_OLD1   0/2539.065
STATS_OLD2   0/2530
STATS_OLD3   0/2395.095
STATS_OLD4   0/1692.25
SURVIVOR   0/495
SYSOPS_CORNER   0/3
SYSOP   0/84
TAGLINES   0/112
TEAMOS2   0/4530
TECH   0/2617
TEST.444   0/105
TRAPDOOR   0/19
TREK   0/755
TUB   0/290
UFO   0/40
UNIX   0/1316
USA_EURLINK   0/102
USR_MODEMS   0/1
VATICAN   0/2740
VIETNAM_VETS   0/14
VIRUS   0/378
VIRUS_INFO   0/201
VISUAL_BASIC   0/473
WHITEHOUSE   0/5187
WIN2000   0/101
WIN32   0/30
WIN95   0/4291
WIN95_OLD1   0/70272
WINDOWS   0/1517
WWB_SYSOP   0/419
WWB_TECH   0/810
ZCC-PUBLIC   0/1
ZEC   4

 
4DOS   0/134
ABORTION   0/7
ALASKA_CHAT   0/506
ALLFIX_FILE   0/1313
ALLFIX_FILE_OLD1   0/7997
ALT_DOS   0/152
AMATEUR_RADIO   0/1039
AMIGASALE   0/14
AMIGA   0/331
AMIGA_INT   0/1
AMIGA_PROG   0/20
AMIGA_SYSOP   0/26
ANIME   0/15
ARGUS   0/924
ASCII_ART   0/340
ASIAN_LINK   0/651
ASTRONOMY   0/417
AUDIO   0/92
AUTOMOBILE_RACING   0/105
BABYLON5   0/17862
BAG   135
BATPOWER   0/361
BBBS.ENGLISH   0/382
BBSLAW   0/109
BBS_ADS   0/5290
BBS_INTERNET   0/507
BIBLE   0/3563
BINKD   0/1119
BINKLEY   0/215
BLUEWAVE   0/2173
CABLE_MODEMS   0/25
CBM   0/46
CDRECORD   0/66
CDROM   0/20
CLASSIC_COMPUTER   0/378
COMICS   0/15
CONSPRCY   0/899
COOKING   39899
COOKING_OLD1   0/24719
COOKING_OLD2   0/40862
COOKING_OLD3   0/37489
COOKING_OLD4   0/35496
COOKING_OLD5   9370
C_ECHO   0/189
C_PLUSPLUS   0/31
DIRTY_DOZEN   0/201
DOORGAMES   0/2155
DOS_INTERNET   0/196
duplikat   6102
ECHOLIST   5638/18295
EC_SUPPORT   0/318
ELECTRONICS   0/359
ELEKTRONIK.GER   1534
ENET.LINGUISTIC   0/13
ENET.POLITICS   0/4
ENET.SOFT   0/11701
ENET.SYSOP   34210
ENET.TALKS   0/32
ENGLISH_TUTOR   0/2000
EVOLUTION   0/1335
FDECHO   0/217
FDN_ANNOUNCE   0/7068
FIDONEWS   24749
FIDONEWS_OLD1   0/49742
FIDONEWS_OLD2   0/35949
FIDONEWS_OLD3   0/30874
FIDONEWS_OLD4   0/37224
FIDO_SYSOP   12913
FIDO_UTIL   0/180
FILEFIND   0/209
FILEGATE   0/212
Möte HAM, 16392 texter
 lista första sista föregående nästa
Text 2812, 774 rader
Skriven 2009-02-27 00:00:26 av Amsat List (1:323/120.0)
Ärende: [keps]  orb09057.amsa
=============================
[keps]  orb09057.amsa

Return-Path: <keps-bounces@amsat.org>
X-Rcpt: craig.healy@chowda.com
X-UIDL: 1235709298.52675

SB KEPS @ AMSAT  $ORB09057.O
Orbital Elements  09057.OSCAR

HR AMSAT ORBITAL ELEMENTS FOR OSCAR SATELLITES
FROM WA5QGD FORT WORTH,TX February 26, 2009
Send Subscribe/unsubscribe to KEPS at 
http://www.amsat.org/mailman/listinfo/keps
BID: ORB09057.O
TO ALL RADIO AMATEURS BT

Satellite: AO-07
Catalog number: 07530
Epoch time:      09056.59925080
Element set:    0414
Inclination:      101.4399 deg
RA of node:       085.3285 deg
Eccentricity:    0.0012028
Arg of perigee:   126.6023 deg
Mean anomaly:     233.6153 deg
Mean motion:   12.53575245 rev/day
Decay rate:       -2.7e-07 rev/day^2
Epoch rev:           56873
Checksum:              292

Satellite: AO-10
Catalog number: 14129
Epoch time:      09057.52070933
Element set:     626
Inclination:      025.9880 deg
RA of node:       169.5367 deg
Eccentricity:    0.5974274
Arg of perigee:   201.3714 deg
Mean anomaly:     116.2490 deg
Mean motion:   02.05867129 rev/day
Decay rate:      .00000000 rev/day^2
Epoch rev:           19333
Checksum:              292

Satellite: UO-11
Catalog number: 14781
Epoch time:      09056.57071941
Element set:     896
Inclination:      098.1226 deg
RA of node:       099.9433 deg
Eccentricity:    0.0008684
Arg of perigee:   343.9843 deg
Mean anomaly:     016.1078 deg
Mean motion:   14.79697391 rev/day
Decay rate:       2.29e-06 rev/day^2
Epoch rev:           34132
Checksum:              340

Satellite: RS-15
Catalog number: 23439
Epoch time:      09057.55877997
Element set:     183
Inclination:      064.8141 deg
RA of node:       083.7135 deg
Eccentricity:    0.0146104
Arg of perigee:   073.0617 deg
Mean anomaly:     288.6265 deg
Mean motion:   11.27553111 rev/day
Decay rate:       -3.9e-07 rev/day^2
Epoch rev:           58364
Checksum:              322

Satellite: FO-29
Catalog number: 24278
Epoch time:      09056.85180157
Element set:     980
Inclination:      098.5713 deg
RA of node:       305.7569 deg
Eccentricity:    0.0349793
Arg of perigee:   278.8664 deg
Mean anomaly:     077.3029 deg
Mean motion:   13.52942662 rev/day
Decay rate:        5.1e-07 rev/day^2
Epoch rev:           61869
Checksum:              365

Satellite: SO-33
Catalog number: 25509
Epoch time:      09056.78063048
Element set:    0396
Inclination:      031.4324 deg
RA of node:       322.4443 deg
Eccentricity:    0.0354175
Arg of perigee:   084.4541 deg
Mean anomaly:     279.6369 deg
Mean motion:   14.28242841 rev/day
Decay rate:       1.12e-06 rev/day^2
Epoch rev:           53989
Checksum:              317

Satellite: AO-40
Catalog number: 26609
Epoch time:      09054.87860206
Element set:     196
Inclination:      008.7844 deg
RA of node:       031.3709 deg
Eccentricity:    0.7951438
Arg of perigee:   178.6236 deg
Mean anomaly:     187.9692 deg
Mean motion:   01.25585141 rev/day
Decay rate:      -1.86e-06 rev/day^2
Epoch rev:            3820
Checksum:              335

Satellite: RS-22
Catalog number: 27939
Epoch time:      09057.69782248
Element set:     726
Inclination:      097.9632 deg
RA of node:       296.4853 deg
Eccentricity:    0.0014571
Arg of perigee:   119.2749 deg
Mean anomaly:     240.9930 deg
Mean motion:   14.63296851 rev/day
Decay rate:        7.0e-07 rev/day^2
Epoch rev:           28941
Checksum:              354

Satellite: VO-52
Catalog number: 28650
Epoch time:      09056.68079578
Element set:    0164
Inclination:      097.7561 deg
RA of node:       121.8815 deg
Eccentricity:    0.0027828
Arg of perigee:   035.7510 deg
Mean anomaly:     324.5598 deg
Mean motion:   14.81557123 rev/day
Decay rate:       3.05e-06 rev/day^2
Epoch rev:           20613
Checksum:              321

Satellite: PO-63
Catalog number: 29712
Epoch time:      09057.71733473
Element set:     268
Inclination:      097.8430 deg
RA of node:       116.7042 deg
Eccentricity:    0.0013059
Arg of perigee:   275.7881 deg
Mean anomaly:     084.1832 deg
Mean motion:   14.80452886 rev/day
Decay rate:       4.18e-06 rev/day^2
Epoch rev:           11512
Checksum:              315

/EX
SB KEPS @ AMSAT  $ORB09057.D
Orbital Elements  09057.MICROS

HR AMSAT ORBITAL ELEMENTS FOR THE MICROSATS
FROM WA5QGD FORT WORTH,TX February 26, 2009
Send Subscribe/unsubscribe to KEPS at 
http://www.amsat.org/mailman/listinfo/keps
BID: ORB09057.D
TO ALL RADIO AMATEURS BT

Satellite: AO-16
Catalog number: 20439
Epoch time:      09056.46367443
Element set:    0544
Inclination:      098.2647 deg
RA of node:       030.0262 deg
Eccentricity:    0.0011399
Arg of perigee:   138.8009 deg
Mean anomaly:     221.4032 deg
Mean motion:   14.31816837 rev/day
Decay rate:        4.0e-08 rev/day^2
Epoch rev:           99716
Checksum:              300

Satellite: LO-19
Catalog number: 20442
Epoch time:      09056.46912327
Element set:    0465
Inclination:      098.2289 deg
RA of node:       037.7172 deg
Eccentricity:    0.0012476
Arg of perigee:   136.3994 deg
Mean anomaly:     223.8190 deg
Mean motion:   14.32053438 rev/day
Decay rate:       -1.5e-07 rev/day^2
Epoch rev:           99732
Checksum:              317

Satellite: AO-27
Catalog number: 22825
Epoch time:      09057.39578790
Element set:     186
Inclination:      098.4227 deg
RA of node:       014.3841 deg
Eccentricity:    0.0007651
Arg of perigee:   227.8694 deg
Mean anomaly:     132.1857 deg
Mean motion:   14.29259235 rev/day
Decay rate:       -2.1e-07 rev/day^2
Epoch rev:           80408
Checksum:              326

